This is the latest recevied weather packets stored in our database for station/object F5MAP-5. If no packets are shown the sender has not sent any weather packets the latest 1 day(s).
| Time | Temp. | Humidity | Pressure | Rain* | Wind** | Luminosity | Snow |
|---|---|---|---|---|---|---|---|
| 1778056333 | 15.56° C | 80% | 1006.2 hPa | 0 mm | - | 232 W/m² | - |
| 1778055133 | 15.56° C | 81% | 1006.2 hPa | 0 mm | - | 285 W/m² | - |
| 1778054532 | 15.56° C | 82% | 1006.2 hPa | 0 mm | - | 253 W/m² | - |
| 1778053933 | 15° C | 83% | 1006.2 hPa | 0 mm | - | 320 W/m² | - |
| 1778053333 | 15° C | 84% | 1006.3 hPa | 0 mm | - | 216 W/m² | - |
| 1778052733 | 15° C | 87% | 1006.3 hPa | 0 mm | - | 220 W/m² | - |
| 1778052133 | 14.44° C | 89% | 1006.3 hPa | 0 mm | - | 183 W/m² | - |
| 1778051533 | 14.44° C | 91% | 1006.3 hPa | 0 mm | - | 192 W/m² | - |
| 1778050333 | 13.33° C | 92% | 1006.3 hPa | 0 mm | - | 176 W/m² | - |
| 1778049133 | 12.22° C | 92% | 1006.5 hPa | 0 mm | - | 160 W/m² | - |
| 1778048533 | 12.22° C | 92% | 1006.4 hPa | 0 mm | - | 72 W/m² | - |
| 1778047933 | 11.67° C | 92% | 1006.6 hPa | 0 mm | - | 86 W/m² | - |
| 1778047333 | 11.67° C | 92% | 1006.6 hPa | 0 mm | - | 90 W/m² | - |
| 1778046133 | 11.11° C | 92% | 1006.4 hPa | 0 mm | - | 54 W/m² | - |
| 1778045533 | 11.11° C | 92% | 1006.4 hPa | 0 mm | - | 54 W/m² | - |
| 1778044932 | 10.56° C | 91% | 1006.5 hPa | 0 mm | - | 46 W/m² | - |
| 1778043732 | 10.56° C | 91% | 1006.6 hPa | 0 mm | - | 37 W/m² | - |
| 1778043135 | 10.56° C | 91% | 1006.7 hPa | 0 mm | - | 33 W/m² | - |
| 1778042534 | 10.56° C | 91% | 1006.7 hPa | 0 mm | - | 33 W/m² | - |
| 1778041933 | 10.56° C | 91% | 1006.8 hPa | 0 mm | - | 14 W/m² | - |
| 1778041333 | 10.56° C | 91% | 1006.8 hPa | 0 mm | - | 7 W/m² | - |
| 1778040733 | 10.56° C | 90% | 1006.7 hPa | 0 mm | - | 0 W/m² | - |
| 1778039533 | 10.56° C | 90% | 1006.9 hPa | 0 mm | - | 0 W/m² | - |
| 1778038933 | 10.56° C | 90% | 1007 hPa | 0 mm | - | 0 W/m² | - |
| 1778035933 | 11.11° C | 89% | 1006.9 hPa | 0 mm | - | 0 W/m² | - |
* Rain latest hour (hover to see other rain measurements)
** Current wind speed in m/s (hover to see current wind gust speed)